Weather History for KETH - February, 2013

Change the Weather History Date:

Tuesday, February 19, 2013

  Actual Average Record
Temperature  
Mean Temperature -4 °F -  
Max Temperature 0 °F 28 °F 58 °F (1981)
Min Temperature -9 °F 9 °F -18 °F (1966)
Degree Days  
Heating Degree Days 70    
Moisture  
Dew Point -10 °F    
Average Humidity 79    
Maximum Humidity 85    
Minimum Humidity 71    
Precipitation  
Precipitation 0.00 in - - ()
Sea Level Pressure  
Sea Level Pressure 30.25 in    
Wind  
Wind Speed 22 mph (NW)    
Max Wind Speed 28 mph    
Max Gust Speed 34 mph    
Visibility 6 miles    
Events      
Averages and records for this station are not official NWS values.
T = Trace of Precipitation, MM = Missing Value Source: NWS Daily Summary

Daily Weather History Graph

Daily Weather History Graph

Search for Another Location

Airport or City:

Trip Planner

Search our weather history database for the weather conditions in past years. The results will help you decide how hot, cold, wet, or windy it might be!

Date:

Astronomy

Feb. 19, 2013 Rise Set
Actual Time 7:21 AM CST 5:59 PM CST
Civil Twilight 6:51 AM CST 6:29 PM CST
Nautical Twilight 6:16 AM CST 7:04 PM CST
Astronomical Twilight 5:42 AM CST 7:38 PM CST
Moon 12:21 PM CST (2/19) 3:03 AM CST (2/19)
Length of Visible Light 11h 38m
Length of Day
10h 37m
Waxing Gibbous, 67% of the Moon is Illuminated
Feb 19
Waxing Gibbous
Feb 25
Full
Mar 4
Last Quarter
Mar 11
New
Mar 19
First Quarter

Hourly Weather History & Observations

Time (CST) Temp. Windchill Dew Point Humidity Pressure Visibility Wind Dir Wind Speed Gust Speed Precip Events Conditions
12:41 AM -0.4 °F -25.2 °F -5.8 °F 78% 30.11 in 5.0 mi NW 26.5 mph 32.2 mph N/A   Overcast
1:01 AM -0.4 °F -24.3 °F -5.8 °F 78% 30.12 in 5.0 mi NW 24.2 mph 31.1 mph N/A   Overcast
1:21 AM -0.4 °F -24.7 °F -5.8 °F 78% 30.13 in 3.0 mi NW 25.3 mph 31.1 mph N/A   Overcast
1:41 AM -0.4 °F -24.7 °F -5.8 °F 78% 30.13 in 2.5 mi NW 25.3 mph 33.4 mph N/A   Overcast
2:01 AM -0.4 °F -25.6 °F -5.8 °F 78% 30.14 in 4.0 mi NW 27.6 mph 34.5 mph N/A   Overcast
2:41 AM -0.4 °F -25.2 °F -5.8 °F 78% 30.15 in 2.5 mi NW 26.5 mph 32.2 mph N/A   Overcast
3:01 AM -2.2 °F -27.1 °F -7.6 °F 78% 30.16 in 4.0 mi WNW 25.3 mph 29.9 mph N/A   Overcast
3:41 AM -4.0 °F -28.6 °F -7.6 °F 85% 30.17 in 4.0 mi NW 23.0 mph 32.2 mph N/A   Overcast
4:01 AM -5.8 °F -30.5 °F -9.4 °F 84% 30.18 in 1.8 mi WNW 21.9 mph 26.5 mph N/A   Overcast
4:41 AM -7.6 °F -32.9 °F -11.2 °F 84% 30.19 in 5.0 mi WNW 21.9 mph 29.9 mph N/A   Overcast
5:01 AM -7.6 °F -32.3 °F -11.2 °F 84% 30.20 in 7.0 mi WNW 20.7 mph 26.5 mph N/A   Overcast
5:21 AM -7.6 °F -32.3 °F -11.2 °F 84% 30.21 in 5.0 mi WNW 20.7 mph 25.3 mph N/A   Overcast
5:41 AM -7.6 °F -32.3 °F -11.2 °F 84% 30.21 in 4.0 mi WNW 20.7 mph 29.9 mph N/A   Overcast
6:21 AM -7.6 °F -31.7 °F -13.0 °F 77% 30.24 in 5.0 mi WNW 19.6 mph - N/A   Overcast
6:41 AM -7.6 °F -31.1 °F -13.0 °F 77% 30.24 in 5.0 mi WNW 18.4 mph 25.3 mph N/A   Overcast
7:21 AM -9.4 °F -33.5 °F -14.8 °F 77% 30.26 in 10.0 mi NW 18.4 mph 25.3 mph N/A   Overcast
8:21 AM -9.4 °F -33.5 °F -16.6 °F 71% 30.29 in 5.0 mi WNW 18.4 mph 26.5 mph N/A   Overcast
3:21 PM -5.8 °F -27.5 °F -11.2 °F 77% 30.38 in 10.0 mi NW 16.1 mph - N/A   Clear
3:41 PM -5.8 °F -27.5 °F -11.2 °F 77% 30.39 in 10.0 mi NW 16.1 mph - N/A   Clear
4:01 PM -5.8 °F -27.5 °F -11.2 °F 77% 30.39 in 10.0 mi NW 16.1 mph - N/A   Clear
4:21 PM -5.8 °F -26.0 °F -11.2 °F 77% 30.40 in 10.0 mi NW 13.8 mph - N/A   Clear
4:41 PM -5.8 °F -27.5 °F -11.2 °F 77% 30.40 in 10.0 mi NW 16.1 mph - N/A   Clear
5:01 PM -5.8 °F -25.2 °F -11.2 °F 77% 30.41 in 10.0 mi NW 12.7 mph - N/A   Clear
5:21 PM -5.8 °F -26.0 °F -11.2 °F 77% 30.41 in 10.0 mi NW 13.8 mph - N/A   Clear